Location: Lac Lasalle
(46.0398°N, 74.1576°W)
Time: 06:49:42
(UTC-05:00)

AO-73 - Pass Details

Date: 11 December 2019
Orbit: 581 x 664 km, 97.6° (Epoch: 17 January)

Event Time Altitude Azimuth Distance (km) Brightness Sun altitude
Rises 17:25:37 0° 167° (SSE) 2,973 ? -12.4°
Reaches altitude 10° 17:27:51 10° 167° (SSE) 2,058 ? -12.7°
Maximum altitude 17:32:21 86° 253° (WSW) 654 ? -13.4°
Drops below altitude 10° 17:36:48 10° 347° (NNW) 2,031 ? -14.2°
Sets 17:38:59 0° 347° (NNW) 2,931 ? -14.5°
